Location: Oriwa
(40.7500°S, 175.3333°E)
Time: 14:08:00
(UTC+00:00)

Thor Agena Rocket - Pass Details

Date: 03 February 2023
Orbit: 758 x 807 km, 99.0° (Epoch: 31 March)

Event Time Altitude Azimuth Distance (km) Brightness Sun altitude
Exits shadow 13:24:49 50° 195° (SSW) 1,005 4.3 -31.5°
Drops below altitude 10° 13:28:36 10° 194° (SSW) 2,355 6.7 -31.3°
Sets 13:30:55 0° 193° (SSW) 3,282 7.6 -31.2°
